Regional Weather Roundup
Issued by NWS

Home | Current Version | Previous Version | Text Only | Print | Product List | Glossary On
Versions: 1 2 3 4 5 6 7 8 9 10 11 12 13 14 15 16 17 18 19 20 21 22 23 24 25 26 27 28 29 30 31 32 33 34 35 36 37 38 39 40 41 42 43 44 45 46 47 48 49 50
000
ASUS43 KLMK 020310
RWRKY
KENTUCKY REGIONAL WEATHER ROUNDUP
NATIONAL WEATHER SERVICE LOUISVILLE KY
1000 PM EST SUN MAR 01 2015

NOTE "FAIR" INDICATES FEW OR NO CLOUDS BELOW 12,000 FEET
WITH NO SIGNIFICANT WEATHER AND/OR OBSTRUCTIONS TO VISIBILITY.

KYZ001>023-026-027-061>063-070>075-020400-
WESTERN AND SOUTH CENTRAL KENTUCKY

CITY           SKY/WX    TMP DP  RH WIND       PRES   REMARKS
PADUCAH        LGT RAIN  34  30  85 N9        30.40R WCI  27
HENDERSON      CLOUDY    32  27  80 NW8       30.40R WCI  25
OWENSBORO      CLOUDY    33  32  96 N9        30.39R FOG     WCI  25
HOPKINSVILLE   DRIZZLE   36  34  93 NW5       30.36R FOG     WCI  32
BOWLING GREEN  NOT AVBL
GLASGOW        LGT RAIN  37  37 100 NW3       30.33R
$$

KYZ024-025-028>034-038-045-046-053-020400-
NORTH CENTRAL KENTUCKY

CITY           SKY/WX    TMP DP  RH WIND       PRES   REMARKS
LOUISVILLE/SDF CLOUDY    36  32  85 W7        30.33R FOG     WCI  30
LOUISVILLE/LOU CLOUDY    36  32  85 NW6       30.33R WCI  31
FORT KNOX      CLOUDY    34  32  92 W7        30.30S WCI  28
$$

KYZ035>037-039>044-047>052-055>060-089>105-020400-
NORTHEAST KENTUCKY

CITY           SKY/WX    TMP DP  RH WIND       PRES   REMARKS
LEXINGTON      MIX PCPN  35  35 100 NW6       30.30R FOG     WCI  30
COVINGTON      CLOUDY    33  30  88 W8        30.28S FOG     WCI  26
FRANKFORT      CLOUDY    35  34  96 W6        30.29R FOG     WCI  30
$$

KYZ054-064>069-076>088-106>120-020400-
SOUTHEAST KENTUCKY

CITY           SKY/WX    TMP DP  RH WIND       PRES   REMARKS
JACKSON        FOG       44  43  96 SW6       30.25S VSB 1/4
LONDON         CLOUDY    46  42  86 SW6       30.27S
SOMERSET       DRIZZLE   43  43 100 S5        30.29S
MIDDLESBORO    FOG       35  35 100 CALM      30.31S VSB 1/4
MONTICELLO     CLOUDY    49  48  96 SW6       30.30F FOG
$$



USA.gov is the U.S. government's official web portal to all federal, state and local government web resources and services.